Location: Newark
(48.5667°N, 7.8167°E)
Time: 22:37:44
(UTC+00:00)

ISS - Pass Details

Date: 25 September 2021
Orbit: 417 x 423 km, 51.6° (Epoch: 17 October)

Event Time Altitude Azimuth Distance (km) Brightness Sun altitude
Rises 19:42:24 0° 287° (WNW) 2,366 1.4 -23.6°
Reaches altitude 10° 19:44:32 10° 291° (WNW) 1,503 0.1 -23.9°
Enters shadow 19:46:51 38° 313° (NW) 659 -2.3 -24.2°
